KUIPER-00150

Last updated on Mon Oct 20 2025 00:02:06 GMT+0000 (Coordinated Universal Time)

1 65770U 25217J 25292.27637154 .00045286 00000+0 13227-2 0 9998 2 65770 51.8604 327.9563 0008784 193.9077 166.1668 15.34825598 3668
UTC large
Height (km)
Speed (km/s)
/
Latitude / Longitude
Inclination (degrees)
Orbital Period (minutes)
Azimuth
Elevation
Range (km)
Doppler Factor

Next 0 passes for location: London (51.5072 / 0.1276)

Sorry there are no passes over London.